Theta_e
325 328 329 330 331 330 330 328 327 328 328 327 326 324 328 331 323 323 339 344 335 337 347 351 356 359 358 356 354 352 351 350 351 352 352 352 352 351 350 349 348 348 349 347 345 345 347 347 346 344 342 342 341 339 338 338 334 331 329 326 324 323 321 320 319 320 320 319 319 318 318 319 319 320 320 320 320 320 320 321 321 321 321 320 320 321 322
326 330 331 333 332 330 330 330 330 331 329 328 329 330 334 336 332 336 344 342 340 345 349 354 360 360 358 356 353 352 352 351 351 352 352 351 350 350 349 348 348 347 347 346 344 344 345 345 343 341 340 341 340 338 338 336 332 329 326 324 322 320 319 318 318 319 319 319 319 318 318 319 320 320 320 320 320 320 320 321 321 321 321 321 321 322 322
325 330 332 332 332 329 327 329 332 333 332 331 333 334 336 335 335 341 342 337 341 350 356 360 361 359 358 356 353 353 353 351 351 351 351 351 350 350 349 348 348 347 346 346 343 342 341 339 337 338 339 341 340 339 338 334 330 326 324 323 321 319 317 317 316 315 316 318 319 318 318 319 320 320 320 319 320 320 320 321 320 320 321 322 322 322 322
321 329 330 328 331 330 326 326 330 331 330 331 333 336 337 336 335 336 332 330 339 354 360 361 361 360 358 356 355 354 352 352 350 349 350 351 350 349 348 347 347 345 345 346 343 340 339 337 336 338 340 340 339 338 336 331 327 325 325 324 322 319 318 315 312 312 315 318 319 319 319 319 320 319 319 320 320 320 320 320 319 320 321 321 321 321 321
319 327 331 328 328 323 321 326 330 331 333 334 334 335 339 340 338 333 330 334 346 356 358 357 358 359 358 357 357 354 353 353 349 348 351 351 350 349 348 347 347 345 345 347 344 341 341 341 339 339 340 339 338 337 333 329 326 326 326 325 324 322 320 316 313 313 315 317 318 319 319 319 319 319 319 320 320 320 321 321 321 321 321 321 320 319 319
319 327 331 327 322 318 322 333 337 335 337 336 333 334 337 341 342 338 338 343 351 354 354 355 356 356 357 357 356 355 355 354 352 351 352 351 350 349 348 347 347 346 346 347 346 344 342 341 339 339 339 338 338 336 331 328 327 327 327 326 325 324 322 319 316 315 316 317 318 319 320 318 319 319 319 319 320 320 321 321 322 322 321 322 321 319 319
321 327 328 320 317 321 330 339 340 337 339 338 337 338 338 338 340 341 341 344 351 355 358 359 358 357 356 356 355 355 355 354 353 352 351 351 350 350 349 348 347 346 346 346 346 345 342 339 338 339 338 338 337 335 331 328 328 328 327 326 326 324 323 322 319 317 319 319 318 320 320 318 318 318 318 319 320 320 320 321 322 322 322 322 322 320 320
324 323 321 319 322 330 335 338 338 338 339 339 337 334 335 337 339 340 341 346 354 359 360 360 359 356 356 356 356 356 355 354 354 352 351 351 350 350 350 348 347 347 345 345 345 345 342 339 338 338 338 337 337 334 330 329 330 328 327 326 326 324 324 323 321 320 321 321 319 319 319 318 318 318 318 319 319 320 321 321 322 322 322 322 321 320 319
325 319 318 322 326 326 328 334 339 338 338 340 336 332 333 337 336 337 342 349 357 361 359 359 358 356 357 357 356 356 355 354 353 352 352 351 350 351 350 348 347 347 345 345 345 344 342 340 338 338 338 337 336 333 331 330 330 328 326 326 326 324 323 323 321 320 321 321 320 319 319 318 318 318 318 319 319 320 320 321 321 322 322 322 321 319 318
327 321 319 321 320 319 326 336 341 340 339 341 340 333 333 338 339 338 344 352 359 361 359 358 358 357 355 353 355 357 356 353 353 353 352 352 351 350 350 348 348 346 344 344 343 342 342 340 339 338 337 337 336 333 331 332 330 327 326 326 325 324 323 322 321 320 320 321 321 321 319 319 318 318 318 319 319 320 320 321 321 322 322 322 321 319 318
324 321 319 319 318 323 334 339 340 340 339 341 339 330 330 340 345 344 347 353 358 359 358 358 359 355 350 350 353 356 355 354 354 354 353 352 351 349 349 348 347 346 345 343 342 341 341 340 339 338 338 337 335 333 333 332 330 328 326 325 325 324 323 322 321 320 320 320 321 322 320 319 318 318 318 318 319 320 320 321 322 322 322 322 321 320 320
322 321 320 319 321 329 338 338 338 339 340 341 334 325 329 343 347 346 351 353 355 357 357 357 356 352 349 351 352 353 354 354 354 354 353 351 350 349 347 347 346 345 344 343 341 340 339 339 339 338 337 337 335 333 333 332 331 328 326 326 325 323 322 322 321 321 320 319 320 322 321 320 319 318 318 319 319 320 320 321 321 322 322 322 322 322 321
322 321 319 319 324 335 340 338 339 341 340 335 328 326 336 348 348 349 354 354 354 357 356 355 355 353 352 353 352 353 354 355 354 353 351 349 348 348 347 346 346 344 343 343 341 339 338 339 339 338 338 337 336 334 334 333 332 330 327 327 325 322 321 321 320 320 320 318 319 321 321 319 319 318 318 319 319 320 321 321 322 322 322 321 321 322 321
321 323 321 318 324 336 341 339 341 341 334 330 330 337 346 348 347 350 353 353 356 357 356 356 356 354 354 353 353 354 355 355 354 352 349 348 347 346 346 345 345 344 343 342 341 340 339 339 339 340 339 337 336 336 335 333 332 331 330 328 326 323 321 320 320 320 319 318 319 320 320 319 318 318 318 319 319 320 321 322 322 322 321 321 321 321 321
324 323 320 318 323 336 342 339 340 339 335 336 342 347 348 346 348 351 351 352 355 356 357 358 356 354 355 355 354 355 355 354 353 351 349 347 346 345 345 345 344 344 343 342 341 340 339 338 340 340 339 338 337 337 336 334 333 332 331 329 327 324 322 320 320 320 319 319 320 320 320 319 319 320 319 319 320 321 321 322 322 322 321 321 321 321 321
325 320 321 326 333 340 341 339 341 341 341 344 347 346 345 346 347 348 350 353 355 355 357 357 355 355 356 354 355 356 355 354 353 350 349 348 346 345 345 344 344 343 342 342 341 340 339 338 339 339 339 338 337 336 336 335 333 332 332 330 328 325 322 321 320 319 319 320 321 320 319 319 320 321 321 320 321 321 322 322 322 322 322 321 322 322 322
333 331 336 342 344 343 340 341 344 344 342 345 346 345 345 347 346 347 350 352 353 355 358 356 355 355 355 354 356 355 354 354 352 350 349 347 346 345 344 344 343 342 342 342 340 340 339 337 338 339 338 337 336 336 337 336 334 332 332 330 328 325 323 322 321 320 321 321 321 320 320 320 320 320 320 321 321 322 322 322 322 322 322 322 322 322 322
339 342 345 345 344 343 342 342 344 345 344 345 346 345 346 347 347 347 348 349 351 354 356 356 355 354 354 355 355 353 353 352 350 349 349 347 346 345 343 343 343 342 342 342 340 339 339 337 338 339 338 336 335 335 336 336 334 332 331 330 328 326 324 322 321 322 322 322 321 320 320 320 320 320 320 320 321 321 322 322 322 322 322 322 322 322 323
336 339 343 344 344 345 345 343 345 346 347 347 348 348 348 348 349 349 349 350 351 353 354 355 354 353 354 354 353 352 351 350 349 349 349 347 346 345 343 343 342 342 342 341 340 339 338 337 338 338 337 336 335 336 337 336 333 332 331 330 327 326 325 323 323 323 323 321 320 320 320 320 321 321 321 321 321 321 322 322 322 322 322 322 322 322 323
340 342 345 345 345 346 346 346 345 346 346 347 348 349 348 347 347 348 349 350 350 352 353 353 353 353 353 352 351 351 349 348 349 349 348 347 346 344 343 343 342 342 342 341 339 338 337 337 338 337 337 336 336 336 336 334 332 332 330 329 327 327 326 324 323 323 322 321 320 320 320 321 321 321 322 321 321 322 322 322 323 323 323 323 323 323 323
343 345 345 345 344 344 345 346 348 349 349 349 348 347 347 348 348 348 349 350 350 351 353 352 352 352 351 350 350 350 348 348 348 348 347 347 345 343 343 342 341 341 341 340 339 337 337 337 337 337 336 336 335 335 334 332 332 332 329 328 327 327 325 324 323 322 322 321 321 321 321 321 321 322 322 322 322 323 323 323 322 322 322 323 323 324 324
338 341 344 344 343 343 343 344 347 348 348 348 348 347 347 350 350 350 350 350 350 351 351 351 351 350 350 350 350 349 348 348 348 347 347 345 344 343 342 341 340 340 340 338 337 337 337 337 337 336 336 335 334 333 332 331 331 330 328 327 327 326 324 324 323 323 322 322 322 322 321 321 322 322 322 321 321 321 322 321 319 319 320 322 322 322 323
336 340 344 344 343 345 345 345 346 347 347 349 350 350 350 351 351 351 350 350 350 351 350 350 349 349 349 350 349 348 347 347 347 346 345 344 343 343 341 340 340 340 339 338 337 337 337 337 336 336 335 334 333 332 332 331 331 330 328 327 326 325 325 324 323 323 322 322 322 322 321 321 322 322 322 321 318 317 319 320 319 320 321 322 321 322 322
340 340 342 343 344 344 345 346 347 348 348 349 351 351 351 350 350 350 350 349 350 350 349 349 348 348 349 349 348 347 346 346 346 345 343 343 342 340 340 340 340 340 339 339 338 337 337 337 336 335 335 334 333 332 331 330 330 330 329 327 326 326 325 324 323 323 323 323 322 322 322 322 322 322 324 323 321 320 320 321 321 321 322 322 322 322 321
342 343 345 346 345 345 346 347 347 348 349 350 350 350 350 350 350 350 349 349 349 348 347 348 347 348 349 349 347 345 345 345 345 343 343 342 341 340 339 339 339 340 339 339 338 337 336 336 335 334 334 333 333 332 331 330 329 329 327 326 326 325 325 324 324 323 323 323 323 322 322 323 323 323 324 324 323 323 323 322 322 322 321 321 321 320 319
339 342 346 347 347 346 346 346 347 348 349 350 350 350 349 348 348 349 349 348 348 347 346 347 347 347 348 348 346 346 345 344 341 340 341 342 341 340 339 338 339 339 338 338 337 336 335 336 335 334 334 333 332 331 329 327 327 327 326 325 326 325 324 324 324 324 323 323 323 323 323 323 324 324 324 324 324 324 324 324 323 322 322 321 320 318 318
336 339 343 345 346 346 346 346 346 347 348 349 350 349 347 345 346 348 348 347 346 346 346 347 347 347 347 347 346 346 344 341 338 339 341 341 340 340 340 338 338 338 337 337 336 335 333 333 331 330 331 331 328 326 325 323 323 325 325 326 326 325 324 323 324 324 324 323 323 324 323 324 324 324 324 324 325 325 325 324 324 324 323 323 322 321 320
340 343 345 345 345 346 346 347 347 347 348 349 348 347 346 346 346 347 346 346 346 346 346 347 347 347 346 346 346 345 343 341 341 342 342 341 340 340 339 338 338 338 336 334 329 326 326 325 323 325 328 327 323 322 323 322 320 322 324 326 326 326 325 323 323 323 324 324 324 324 324 324 324 324 324 324 324 324 324 324 324 324 324 324 324 324 323
344 345 344 346 347 346 346 347 347 348 347 347 346 345 345 345 345 345 345 345 345 345 346 346 346 345 345 344 344 343 343 342 343 343 342 340 339 339 339 338 338 336 331 326 322 322 324 324 323 325 327 325 321 322 324 323 321 322 323 325 326 326 325 324 324 323 323 324 324 325 324 324 324 324 324 324 324 324 324 324 324 325 325 325 326 326 325
346 343 343 345 346 345 345 346 348 348 346 345 345 345 344 344 344 344 343 344 345 346 345 344 344 344 344 343 343 342 341 341 342 343 342 340 339 338 337 337 336 334 329 326 325 325 326 325 325 326 327 325 323 325 326 326 324 323 323 324 326 326 326 325 325 324 323 324 324 324 323 323 323 324 324 323 323 324 324 325 325 326 325 325 326 326 326
344 343 343 345 344 343 345 347 348 346 345 344 344 344 344 343 343 342 342 343 345 345 343 342 342 343 344 343 343 342 341 341 341 341 341 341 339 337 334 333 334 334 331 329 327 327 327 328 328 329 329 328 328 328 329 328 326 325 324 324 325 325 323 323 323 323 323 324 324 323 323 323 323 323 323 323 324 324 325 325 325 325 325 326 326 326 326
343 343 343 344 344 344 347 348 347 345 344 344 343 344 344 343 341 340 341 341 342 343 342 342 342 343 343 342 342 341 340 340 340 340 340 340 338 336 334 332 332 331 330 328 328 329 329 328 329 329 330 330 330 330 330 328 328 328 327 326 326 324 320 318 319 321 322 323 324 324 324 323 323 324 324 324 325 325 325 326 326 326 326 326 326 327 328
344 345 345 346 346 345 346 347 346 345 344 343 342 343 343 341 339 339 340 340 341 341 341 340 341 342 343 342 340 340 339 339 340 340 340 339 338 337 335 333 331 330 329 329 330 330 329 329 330 330 329 328 329 330 330 329 329 328 328 327 326 325 321 316 315 319 322 323 323 324 324 323 324 325 325 325 326 326 326 326 326 326 326 326 327 327 328
344 344 343 344 344 344 345 345 345 345 343 342 342 342 341 341 342 341 340 341 341 340 339 339 340 342 342 340 338 338 338 340 340 340 340 340 339 337 336 334 333 332 332 331 330 330 330 331 332 329 324 323 325 328 330 330 329 328 327 326 325 325 324 319 314 317 321 323 323 323 324 324 325 326 326 326 326 327 327 327 327 326 327 327 327 327 328
341 342 342 343 343 343 343 343 344 344 343 342 342 342 341 342 343 341 340 341 340 337 336 337 339 341 341 340 339 339 339 340 340 339 339 339 339 337 335 335 334 333 333 332 331 331 331 332 331 328 324 322 325 327 327 328 327 326 327 327 325 324 324 323 320 319 322 323 323 324 325 325 326 326 326 327 327 327 327 327 327 327 327 327 327 328 328
342 342 342 341 342 342 342 342 343 343 342 342 341 341 341 342 342 340 339 340 338 335 333 335 339 341 340 338 338 339 338 338 339 339 339 339 340 337 335 335 335 333 333 332 331 331 330 331 331 329 325 323 325 326 325 325 326 327 326 326 326 324 323 323 323 323 323 323 324 325 326 326 325 325 325 325 326 327 327 326 327 327 327 327 328 329 329
341 342 340 338 340 343 344 343 343 343 342 342 342 341 341 342 342 340 339 339 337 334 332 334 338 340 339 336 337 337 337 337 338 339 338 339 339 337 335 335 333 331 331 333 332 331 330 330 331 330 326 324 325 326 323 321 323 326 325 324 324 324 322 322 322 322 323 324 325 326 326 325 325 325 325 325 326 327 327 327 327 327 328 328 328 329 329
339 341 339 336 338 342 343 343 343 343 342 344 344 341 339 339 340 339 340 339 337 333 332 336 339 339 337 335 336 337 337 338 338 338 338 337 337 336 334 333 332 331 332 333 333 330 329 329 329 330 329 326 326 326 324 320 320 323 324 323 322 322 322 321 322 323 323 325 326 326 326 325 325 326 326 326 326 327 327 327 328 328 328 328 328 329 329
338 339 338 337 338 340 339 340 342 343 343 343 342 338 336 337 339 339 340 340 337 333 334 337 338 335 333 333 335 336 336 336 335 334 333 332 332 332 331 331 331 332 332 331 331 329 327 326 326 328 328 328 327 327 326 323 321 322 324 323 322 322 322 322 323 324 324 325 326 326 326 325 325 325 325 326 326 327 327 328 328 329 329 329 330 330 330
338 338 338 337 338 339 338 338 340 341 342 344 342 338 336 337 338 338 338 337 335 333 333 334 334 332 331 331 333 333 333 333 332 330 328 327 327 329 329 329 328 327 326 327 328 327 325 324 325 326 326 326 327 328 327 325 323 324 325 325 324 323 324 324 324 324 325 325 325 325 325 325 325 325 326 327 328 328 329 329 329 330 330 330 331 331 331
339 339 337 337 338 338 338 338 338 339 341 342 341 338 337 337 337 337 336 336 335 333 332 332 334 335 332 330 330 331 332 333 332 330 328 328 328 328 329 329 328 327 325 325 326 326 324 324 326 326 325 326 327 328 327 325 324 325 327 327 326 326 326 325 324 324 324 324 324 325 325 326 326 327 327 328 329 330 330 330 330 330 329 329 330 331 332
341 339 337 337 338 338 338 339 339 339 340 340 339 338 337 337 336 336 336 337 336 334 332 332 335 334 332 331 332 332 332 331 329 326 325 328 330 330 330 330 329 328 326 325 325 325 325 325 326 326 326 326 327 326 325 325 326 326 327 328 327 327 326 325 324 324 324 324 325 326 327 327 328 329 329 330 330 331 330 330 329 329 329 329 329 331 332
342 340 339 338 338 338 339 338 339 340 340 339 338 337 337 336 336 336 336 337 336 334 332 332 333 333 333 333 333 332 331 330 329 326 324 326 327 328 329 329 328 326 326 326 326 326 327 328 328 325 322 322 322 322 322 324 327 327 327 328 327 327 327 326 326 326 327 327 327 328 328 329 330 330 330 330 330 329 329 329 328 329 330 331 331 332 332
342 342 340 338 338 339 340 339 339 340 340 338 337 337 336 336 337 337 337 337 336 335 332 332 333 334 334 333 331 330 330 329 329 329 329 328 327 327 328 327 326 326 327 327 327 328 328 329 328 325 321 319 320 319 320 323 327 328 327 327 328 328 328 328 328 328 328 329 329 330 330 330 330 330 330 329 329 330 330 330 330 330 330 330 331 331 330
342 340 339 339 339 340 339 339 339 339 338 337 336 337 337 337 337 338 338 338 336 334 332 332 332 334 334 333 331 330 330 330 330 330 330 330 329 329 328 327 326 327 328 326 326 328 329 328 327 325 323 322 322 321 321 324 328 328 328 328 328 328 328 329 329 329 330 331 331 332 332 331 329 329 330 331 332 332 331 331 330 330 329 328 328 328 327
341 338 338 339 340 339 338 338 338 338 337 337 337 337 337 338 338 337 337 337 336 334 332 332 331 331 333 334 332 330 329 330 331 331 330 330 330 331 330 328 327 327 327 326 326 328 329 329 327 326 326 326 325 324 323 325 328 329 329 329 329 329 330 330 331 331 332 332 332 332 332 331 330 330 331 331 331 330 329 328 328 327 327 326 326 325 325
339 337 338 339 340 339 338 339 338 337 337 337 337 337 337 336 335 335 336 337 335 333 331 331 331 330 331 332 331 329 328 330 330 329 328 329 330 330 330 329 328 328 327 326 326 327 329 329 328 328 328 328 327 327 327 328 331 331 331 331 331 331 332 333 333 333 333 333 332 331 331 331 331 330 330 329 328 327 326 325 325 324 324 323 322 322 321
337 337 337 338 339 339 339 338 337 337 336 336 336 336 336 335 334 335 336 335 333 332 331 330 330 329 328 328 328 329 330 330 329 329 329 330 330 331 331 330 329 329 328 327 326 326 328 329 328 328 328 328 328 328 330 332 333 333 333 333 334 334 334 334 334 333 333 332 331 330 330 330 328 327 325 324 323 322 322 322 321 321 321 321 320 319 317
337 337 337 338 338 338 338 337 336 336 335 335 335 335 335 334 335 335 335 333 332 332 333 332 329 328 328 328 329 330 330 330 329 331 332 331 331 332 332 330 328 328 328 329 329 329 328 327 327 328 327 327 328 330 332 334 335 335 334 334 334 334 333 332 331 330 330 329 328 327 327 325 324 322 321 320 320 320 320 320 320 319 318 316 313 310 308
338 338 338 339 338 337 337 338 338 336 335 334 334 334 334 335 335 334 333 333 333 334 335 334 331 329 329 329 330 331 331 329 328 329 329 329 329 330 330 329 328 328 328 329 331 330 329 328 328 328 327 327 330 333 335 335 335 334 333 332 331 330 330 329 329 329 328 327 326 325 324 322 321 320 319 319 319 319 319 317 315 312 309 306 304 302 301
338 339 338 338 337 336 336 337 336 334 333 333 334 334 335 336 335 334 334 334 334 334 335 335 334 333 332 332 332 332 330 328 327 327 328 328 329 328 328 328 328 328 328 329 330 331 331 331 330 329 329 331 334 335 334 333 332 331 330 329 329 329 329 329 328 327 326 325 324 323 321 320 318 318 319 319 318 315 312 309 306 303 302 301 301 301 301
338 338 337 336 335 334 333 332 331 331 332 333 334 334 335 335 335 334 333 333 333 332 333 333 334 334 334 333 333 332 331 329 328 328 329 330 330 329 328 328 328 328 329 330 332 332 332 331 330 329 330 333 334 332 330 329 330 329 329 329 329 329 328 327 327 326 325 324 322 320 319 318 318 318 317 314 310 306 303 302 301 301 301 301 301 301 300
Wind_Speed
3 3 3 2 3 2 2 4 4 5 7 9 9 7 4 3 6 4 4 3 5 5 8 8 7 6 6 7 7 7 8 8 9 10 10 11 10 11 12 13 13 17 22 22 20 22 24 27 28 27 27 26 25 24 22 22 23 23 20 18 17 16 16 15 14 15 16 15 16 16 16 16 14 12 10 10 10 9 7 6 6 5 5 4 3 3 2
4 3 4 4 4 5 4 4 4 5 6 6 6 4 1 2 4 3 3 3 3 6 8 7 8 8 9 10 9 9 9 9 9 9 9 9 10 11 12 14 14 14 17 20 20 22 26 28 28 31 30 26 24 24 23 23 23 21 19 18 17 15 14 14 15 16 16 15 15 15 15 15 14 12 10 10 10 9 7 6 6 5 5 5 4 3 2
5 4 5 5 6 5 5 4 3 4 5 5 4 2 1 3 3 1 3 5 2 5 6 6 8 9 10 10 9 9 9 9 10 9 10 11 11 13 14 15 18 17 18 20 19 20 22 22 23 28 29 25 22 23 24 24 23 21 20 18 16 14 13 13 14 15 15 16 15 15 15 14 13 12 11 10 10 9 7 7 7 6 6 5 5 4 3
5 5 6 6 5 5 5 5 5 6 5 3 2 1 0 3 4 4 6 5 3 4 4 6 8 8 9 9 9 8 9 10 11 11 12 14 14 16 17 20 22 21 21 22 20 18 19 19 20 22 23 22 22 24 24 24 23 22 20 18 15 13 12 12 13 14 15 16 16 15 15 14 13 12 11 10 9 9 8 7 6 6 6 6 5 5 4
5 4 5 5 5 5 4 2 3 4 3 1 2 1 1 2 4 5 5 4 5 4 3 5 6 7 8 8 8 7 9 11 13 13 14 16 17 17 19 22 23 22 22 24 24 22 22 22 22 21 21 23 24 25 25 25 24 23 20 17 15 13 12 12 13 14 15 15 16 16 15 14 13 12 11 11 10 9 8 7 7 6 6 5 5 5 4
3 4 5 5 5 5 1 2 2 1 1 3 4 3 1 1 3 4 4 3 4 3 3 5 6 7 8 8 7 7 9 12 14 13 14 16 17 17 18 21 22 23 24 26 26 24 23 24 25 24 24 25 25 24 25 25 24 21 18 17 15 14 13 12 12 13 14 15 15 16 15 14 13 12 12 11 9 9 8 7 7 6 6 6 5 5 5
3 4 5 7 5 1 3 3 3 2 1 3 4 5 4 2 3 3 3 2 3 5 6 8 10 9 9 8 8 8 10 10 11 12 14 15 17 17 18 20 22 24 26 27 27 25 25 27 28 26 25 25 25 25 26 26 23 19 18 17 15 15 13 11 11 12 13 14 15 15 15 14 14 13 13 11 10 9 9 8 7 7 7 6 6 6 5
3 5 6 5 2 2 5 4 3 2 3 3 4 6 4 1 4 5 3 2 5 7 8 10 10 9 9 7 7 9 9 9 8 10 13 16 18 18 18 19 20 20 22 26 26 23 25 29 28 27 27 28 28 28 28 26 23 19 19 18 16 16 14 11 11 12 13 13 13 14 15 14 14 14 13 12 11 10 9 8 8 8 7 6 6 6 5
3 5 6 3 2 2 4 4 4 2 3 2 3 6 1 3 4 7 3 3 6 8 10 10 9 9 9 6 5 8 9 9 9 9 10 13 17 18 17 15 14 14 16 19 20 18 23 30 30 29 30 31 30 30 29 27 24 22 21 20 18 17 16 14 12 12 12 13 12 12 14 14 14 14 14 13 12 11 10 9 8 8 8 7 7 7 6
4 5 5 4 5 5 1 3 5 2 1 2 1 5 1 3 3 7 2 4 8 9 9 10 9 7 5 2 3 7 10 11 10 9 8 11 16 18 17 14 12 12 14 16 16 15 21 30 32 30 31 31 30 30 31 29 27 25 24 22 21 19 18 16 14 13 12 12 12 11 12 13 14 13 13 13 13 12 11 10 9 9 8 7 7 7 7
5 6 6 5 5 3 2 5 6 4 2 2 1 5 3 1 1 3 2 5 8 9 9 10 8 4 3 0 2 7 11 12 12 11 10 12 15 16 16 14 12 12 13 14 14 14 18 28 33 32 30 30 29 30 31 30 28 28 27 24 21 20 18 17 15 12 11 11 12 11 11 13 13 12 13 13 13 13 12 10 10 9 7 7 7 7 8
6 7 6 5 4 1 5 6 6 5 4 3 4 5 2 2 2 3 4 5 7 8 8 9 5 1 1 1 2 5 10 11 12 13 12 11 12 13 13 13 12 11 11 12 13 14 16 25 32 32 29 29 29 29 30 30 29 29 28 24 20 19 19 17 15 13 11 11 12 10 10 12 13 13 13 14 13 13 12 10 10 9 8 8 8 8 8
7 7 7 6 2 3 6 6 6 6 5 4 5 4 1 4 5 6 4 5 8 8 7 6 3 2 3 4 3 5 10 11 11 12 11 10 10 11 11 12 11 11 11 11 12 13 14 20 29 30 29 29 29 29 29 30 30 29 26 22 20 20 20 19 17 15 13 13 13 10 9 11 13 14 14 14 14 13 12 11 11 11 10 9 9 8 8
6 5 7 7 3 3 5 6 7 6 5 3 1 2 3 3 6 6 5 5 7 7 6 6 7 7 7 5 5 7 10 11 11 12 11 10 9 10 11 12 12 11 11 11 12 13 13 17 24 27 27 29 30 29 29 30 30 28 24 21 20 21 21 20 19 18 15 14 13 11 9 10 13 14 15 15 14 13 12 12 12 11 11 10 9 9 9
5 5 7 8 3 3 8 9 7 5 4 1 3 4 5 4 5 5 4 5 6 7 7 9 10 10 8 7 7 8 10 10 11 11 11 10 10 10 11 12 11 11 11 12 13 14 13 15 20 24 26 29 30 29 29 29 28 25 23 22 20 20 21 20 19 19 17 15 14 11 10 11 12 12 14 14 14 13 13 13 12 11 11 11 10 10 11
6 7 6 3 2 6 11 7 2 3 2 3 3 2 3 4 4 3 4 5 6 7 9 11 11 10 10 9 9 9 10 10 11 11 11 10 10 10 11 11 11 11 11 12 13 14 13 14 17 19 21 25 28 27 28 29 26 21 20 22 21 20 20 19 19 18 17 15 14 12 11 11 12 12 12 13 13 13 13 12 12 12 12 11 11 11 11
2 3 1 3 5 7 9 4 2 3 4 3 1 0 1 3 3 2 3 5 6 8 10 12 11 10 10 10 10 10 11 11 11 11 10 9 10 10 10 11 11 11 11 12 13 13 13 13 14 14 16 20 23 24 24 25 24 22 20 21 22 21 20 19 18 17 16 16 15 13 12 12 13 13 13 13 13 13 12 13 13 13 12 11 11 12 12
4 3 4 5 6 7 7 5 3 4 4 4 2 1 1 2 3 2 2 4 6 9 11 12 11 10 10 10 10 10 10 11 11 11 10 9 9 10 10 11 11 11 11 12 13 12 12 13 13 13 14 15 17 19 17 17 21 23 21 21 22 21 19 19 18 17 16 15 15 14 14 13 13 13 13 13 13 13 12 13 13 13 13 12 12 12 12
5 3 4 6 7 7 6 6 5 4 4 4 2 1 1 2 2 3 3 4 6 9 10 10 10 11 11 11 10 10 10 11 11 11 11 10 10 10 11 11 11 12 12 13 13 12 13 13 13 14 15 13 14 15 13 13 20 24 23 22 22 21 18 17 16 15 15 15 15 15 15 14 13 13 13 13 13 13 14 14 14 13 13 13 12 11 11
3 3 6 7 7 6 5 5 5 5 4 4 3 1 2 2 2 3 4 4 7 8 9 10 11 12 11 11 11 11 11 11 12 12 11 10 10 10 11 11 11 12 12 13 13 12 12 14 14 15 15 14 13 13 14 17 22 25 23 22 21 18 17 16 14 14 15 15 14 14 14 14 14 13 13 13 13 14 14 14 14 13 13 13 12 11 11
3 4 7 8 6 6 7 6 5 4 4 4 3 2 2 3 3 4 5 5 6 8 9 11 11 11 11 10 11 11 12 12 13 12 11 10 10 10 11 11 11 11 11 13 13 13 12 13 15 16 15 13 13 15 16 19 23 24 23 22 18 16 16 15 14 14 14 14 14 13 13 14 14 13 14 14 14 14 15 14 15 14 13 13 12 11 11
4 4 9 9 4 3 8 9 7 6 5 4 4 4 4 4 5 5 6 7 8 9 10 11 10 10 10 11 12 12 13 12 12 12 12 12 11 11 11 11 11 11 12 13 14 13 13 13 15 16 15 14 15 15 16 18 22 23 23 21 17 16 16 15 13 13 13 13 13 13 12 13 13 13 14 15 15 15 14 14 14 14 13 12 11 11 13
2 5 12 12 3 2 7 10 8 7 6 5 5 5 5 5 6 6 7 9 10 11 10 9 9 11 12 13 13 13 13 12 12 12 13 13 12 12 12 12 12 12 12 13 14 14 13 15 16 16 14 15 16 16 17 19 21 21 21 20 17 16 15 14 13 12 12 12 12 13 12 13 13 12 12 13 14 13 12 12 12 12 12 12 12 12 14
5 7 11 10 3 4 10 11 9 9 7 6 6 6 6 6 7 7 8 9 10 11 10 9 10 12 13 13 14 13 13 13 13 13 13 13 13 12 11 11 11 12 12 12 14 14 14 16 18 17 15 16 16 16 19 21 20 18 19 18 16 15 14 13 13 13 11 10 11 12 13 13 13 13 12 12 12 12 11 11 12 12 12 13 12 12 13
8 8 10 8 6 8 11 10 8 9 8 6 7 8 8 8 8 8 8 9 9 10 10 11 11 13 14 14 14 14 14 15 15 15 15 14 14 13 12 10 10 12 12 12 13 13 14 16 18 17 16 16 16 17 19 21 20 19 19 17 14 13 13 13 13 13 11 11 11 12 12 13 13 13 13 12 11 10 10 11 12 13 13 14 14 14 15
9 10 11 10 9 10 11 9 9 9 8 8 9 9 10 11 10 10 9 9 9 10 11 12 13 13 14 14 14 15 15 16 16 15 15 14 13 13 12 11 11 11 12 12 13 14 15 17 17 17 15 15 16 17 18 19 19 18 18 16 14 12 12 12 13 12 12 12 12 12 12 13 13 13 13 12 11 11 11 11 12 13 14 15 16 16 16
8 10 11 9 10 11 9 7 9 10 10 10 11 11 11 12 11 11 10 10 10 11 11 13 14 14 14 14 15 15 16 17 16 15 14 13 12 12 12 12 13 13 13 13 14 16 17 18 17 17 16 16 16 17 17 17 17 16 16 15 13 12 12 13 12 12 12 13 12 12 13 13 14 13 12 12 11 11 12 12 12 13 14 15 15 15 14
8 10 9 6 8 12 10 8 10 12 11 11 11 11 11 11 11 10 10 11 12 13 13 13 14 14 15 15 16 16 16 17 16 14 14 13 12 12 13 14 14 15 15 15 17 19 19 19 19 18 17 16 16 16 15 14 14 14 15 15 14 12 12 12 12 11 12 13 13 13 14 14 13 13 12 11 11 12 12 13 14 14 14 14 14 14 13
9 10 7 4 7 12 12 11 12 13 12 11 11 11 11 11 11 10 11 12 13 14 14 13 13 14 14 14 15 15 14 14 14 14 14 14 13 13 14 15 15 16 17 19 20 21 19 18 19 18 17 16 15 14 13 12 12 13 14 14 14 13 11 11 12 12 12 12 13 14 15 14 13 12 12 12 12 13 14 14 14 15 14 14 13 13 14
9 9 7 6 9 13 13 13 13 13 13 12 11 11 11 11 11 11 11 12 12 13 14 15 14 14 12 12 13 12 11 11 12 12 13 15 15 14 16 17 17 17 18 19 20 20 18 18 17 16 15 15 14 13 12 11 11 11 12 13 14 13 12 12 12 12 12 13 14 15 16 16 14 13 13 14 14 14 15 15 15 15 15 14 14 14 15
11 9 7 9 12 13 13 13 13 13 13 12 12 11 11 11 11 12 12 12 12 13 14 15 15 13 12 12 12 11 9 10 11 9 10 13 15 14 16 18 18 18 19 19 19 18 17 15 14 14 13 13 13 13 13 12 11 11 11 12 13 14 14 14 13 12 11 12 14 15 15 15 14 14 14 14 14 14 14 14 15 15 15 15 16 16 16
12 10 9 10 12 12 12 13 13 13 13 13 12 12 11 11 12 13 13 12 13 13 13 13 13 13 12 12 12 11 9 9 10 8 9 13 16 15 16 17 18 18 18 17 17 16 15 13 12 11 10 10 11 12 13 14 13 12 11 12 12 13 14 15 15 13 12 12 13 14 14 14 14 14 14 14 14 14 14 15 15 16 16 16 17 17 17
14 12 11 12 13 13 13 13 13 13 13 12 11 11 11 11 12 13 13 13 13 12 11 11 11 11 11 12 12 11 9 9 9 9 9 13 17 18 17 17 17 17 16 16 15 15 14 13 12 11 9 8 9 11 12 13 13 12 12 12 11 12 13 14 14 14 13 13 13 13 13 13 13 13 13 14 15 15 15 16 16 16 17 17 18 18 19
13 12 12 13 15 14 14 14 14 13 13 12 11 11 11 11 12 14 14 13 13 12 11 10 8 9 11 11 10 9 8 8 9 10 9 11 16 19 18 17 17 17 17 16 15 14 13 11 10 10 8 6 7 9 10 11 12 12 12 12 12 12 12 13 14 14 14 13 13 13 13 13 13 14 14 15 15 16 16 17 17 18 18 19 19 20 21
11 8 8 11 13 13 13 14 14 13 13 12 12 11 11 11 13 15 15 14 13 12 10 9 8 8 10 10 9 8 8 8 10 11 10 11 16 20 18 16 16 17 17 16 14 12 10 9 8 9 9 6 5 7 9 10 11 12 12 13 12 12 12 12 13 14 14 13 12 13 13 14 14 15 15 16 16 17 17 18 18 19 20 20 21 21 22
9 8 7 9 11 11 12 14 14 14 13 13 12 13 12 12 13 16 15 14 13 12 11 9 8 9 9 8 8 8 7 7 10 11 10 11 16 19 18 16 15 16 15 14 13 11 10 8 8 10 10 8 6 6 8 9 11 11 12 12 13 13 13 13 13 13 13 13 13 13 14 14 15 15 16 17 18 18 19 19 19 20 20 21 21 22 22
11 8 8 9 11 11 12 13 14 14 13 12 12 13 14 13 13 14 14 13 13 13 11 9 9 10 10 8 7 7 8 9 10 11 11 12 15 17 16 16 15 15 14 12 12 11 10 8 7 10 12 11 8 7 6 7 9 11 11 11 12 12 13 13 14 14 13 14 14 15 15 16 16 16 17 18 18 18 19 19 19 20 21 21 22 22 23
12 10 9 10 11 12 13 14 14 14 13 12 13 14 15 15 14 14 13 13 14 13 12 10 10 11 10 9 8 9 10 10 11 12 12 13 14 15 15 16 15 14 12 10 9 10 11 9 8 9 11 12 11 9 7 6 6 8 10 10 11 11 12 12 13 13 13 14 15 16 16 16 16 16 17 17 17 18 19 20 20 21 22 23 23 23 23
14 12 10 10 11 14 15 16 15 14 13 13 14 16 17 15 14 14 14 14 14 14 13 12 12 12 11 10 9 10 11 12 13 14 14 13 12 12 11 12 12 11 9 7 7 8 10 11 10 10 11 13 13 12 10 8 6 7 8 9 10 11 11 12 12 13 14 14 15 16 16 17 17 17 17 18 18 19 20 21 21 22 23 23 23 21 20
15 13 11 11 13 15 17 17 17 15 13 12 13 16 16 15 14 14 14 15 15 15 15 14 13 13 12 11 11 12 12 13 13 14 13 12 11 9 8 8 8 8 8 7 6 7 9 9 8 8 10 12 12 13 14 13 10 8 8 9 10 10 11 12 12 13 14 15 16 17 17 17 17 17 18 18 18 19 20 21 21 22 22 21 20 19 18
16 14 13 12 14 16 18 18 18 17 15 13 13 15 16 15 14 14 14 15 16 16 16 14 13 13 13 13 12 12 12 12 12 12 11 11 10 9 8 8 8 8 8 8 8 7 7 6 6 6 8 10 12 14 16 16 13 11 10 10 10 11 11 12 13 13 14 14 14 15 15 15 16 17 17 18 19 19 19 20 21 22 23 23 21 18 16
15 14 14 13 14 16 17 18 18 17 16 15 15 15 15 15 14 13 13 14 15 17 17 15 13 13 14 13 13 12 12 12 12 12 12 12 11 9 8 8 8 9 9 9 8 7 6 6 6 6 6 8 10 13 15 14 14 14 12 11 11 12 12 12 12 13 13 13 13 14 14 15 16 17 18 18 18 18 19 21 24 26 27 26 21 17 15
14 14 14 14 15 15 16 16 17 16 15 15 15 15 15 15 13 12 11 13 15 17 17 16 14 14 14 14 13 13 13 12 13 13 13 12 11 9 8 7 8 9 8 7 7 6 5 5 5 5 6 7 8 11 12 12 13 13 13 12 12 12 11 11 12 11 11 12 13 13 14 16 16 17 18 19 19 19 22 24 26 25 24 21 17 15 15
14 13 13 15 16 15 14 14 14 14 14 14 15 15 15 14 13 12 11 13 16 18 18 16 15 14 14 14 14 14 14 13 13 13 11 9 9 8 8 8 9 9 8 7 6 5 5 6 5 5 5 6 6 7 9 10 11 11 11 11 11 11 11 11 11 11 12 12 13 14 15 16 17 17 19 21 21 19 19 20 19 18 17 16 15 15 16
13 13 14 16 16 15 13 12 12 12 13 14 14 14 13 13 13 12 11 13 17 19 18 17 15 15 14 13 13 14 14 13 12 11 10 8 7 7 8 10 11 10 8 7 7 6 6 6 6 5 5 5 6 6 8 9 9 10 10 11 11 11 11 11 11 11 11 12 12 12 14 17 19 19 18 17 16 14 14 15 15 14 15 16 16 16 18
13 14 16 17 17 15 13 11 11 11 12 13 13 13 13 13 12 11 11 14 18 19 18 16 15 15 13 13 13 15 16 14 11 10 10 9 6 5 5 8 11 11 9 8 8 7 7 7 6 6 6 6 6 6 7 9 10 10 10 10 10 10 10 10 10 10 10 11 11 13 15 17 17 16 13 12 12 12 14 16 16 16 17 18 19 19 20
13 15 17 18 18 16 13 11 10 10 12 13 13 13 13 13 11 10 11 16 19 20 18 16 15 14 13 12 14 15 15 13 12 11 11 10 8 5 4 6 9 11 10 9 9 9 8 8 7 6 6 7 7 7 8 9 10 10 10 10 10 10 9 9 9 9 10 12 13 14 12 10 10 10 10 11 12 14 15 16 17 18 19 19 20 21 22
14 15 17 18 17 15 13 12 11 12 13 13 13 13 13 12 10 11 14 19 20 19 16 16 15 14 12 11 12 12 12 11 11 10 10 10 9 8 7 8 8 8 9 10 11 11 10 9 8 7 7 8 8 8 9 9 10 10 9 9 8 8 8 8 8 9 11 12 13 12 10 9 9 11 12 14 15 17 17 18 18 19 20 20 21 23 24
15 15 16 16 16 15 14 13 13 13 13 12 11 11 11 11 12 14 18 20 18 16 13 13 14 14 14 13 12 11 12 12 11 9 8 9 9 9 10 10 9 8 9 10 11 11 11 10 8 8 8 8 8 9 9 9 9 8 8 8 8 9 9 10 11 12 13 13 13 12 11 12 13 15 16 17 18 18 19 19 20 21 22 23 23 24 25
15 15 15 15 15 15 15 14 12 11 11 11 10 10 11 12 15 17 19 18 15 13 11 10 12 13 14 14 13 12 11 11 10 8 7 7 7 7 9 9 9 9 9 9 9 9 9 9 8 8 8 8 8 8 8 8 8 8 9 10 11 11 12 13 14 14 13 12 11 11 12 13 15 16 17 17 18 19 20 20 22 23 24 23 23 23 23
15 15 16 17 16 16 14 11 9 10 11 11 11 11 12 12 14 16 16 14 12 11 9 9 9 11 12 12 12 11 10 8 8 8 7 6 6 6 8 8 9 9 9 8 7 7 7 7 8 8 8 7 7 8 8 8 9 10 11 11 12 13 14 14 14 12 10 9 10 11 13 14 15 16 17 18 19 21 21 21 22 23 22 22 22 22 22
16 17 18 17 15 14 11 9 9 10 12 12 13 12 12 12 13 14 13 13 11 10 9 8 8 9 10 11 12 11 10 9 9 9 8 7 6 7 7 8 9 9 8 8 7 6 5 5 5 5 5 6 7 8 9 9 10 11 11 12 13 14 14 12 10 8 8 9 11 12 14 15 16 18 20 20 21 21 21 21 21 21 21 21 21 21 20
Wind_Direction
245 313 288 269 258 239 203 201 194 188 193 203 221 248 295 298 276 302 30 2 309 350 24 32 47 61 82 97 101 106 113 126 136 145 153 158 165 175 186 197 202 202 203 199 195 197 201 203 196 183 178 176 171 170 171 173 175 172 167 166 163 164 169 172 170 169 170 170 171 170 169 170 171 171 175 177 176 184 184 180 191 201 201 205 207 218 232
193 216 237 242 230 211 199 204 202 199 199 207 231 257 318 295 299 357 10 311 342 31 32 45 63 71 85 94 101 108 113 124 131 140 155 161 167 177 189 199 199 201 209 209 204 204 205 202 191 179 175 173 171 171 172 173 173 167 161 159 157 163 170 171 171 172 170 169 171 173 172 172 173 174 178 180 183 191 191 193 206 207 200 198 199 222 247
175 198 219 218 223 225 216 211 211 214 210 208 220 209 160 244 276 338 292 285 354 56 52 72 85 87 90 94 102 108 113 125 134 147 165 174 182 188 192 198 198 202 213 215 211 210 205 190 175 171 172 170 171 174 173 171 166 160 157 153 152 159 166 171 176 176 174 172 173 174 172 173 175 177 181 186 190 195 198 204 211 204 200 200 195 208 226
172 185 218 210 212 235 234 224 225 232 234 221 203 185 235 284 299 296 285 296 30 69 82 94 94 95 96 96 105 114 122 139 154 167 177 182 188 190 194 200 200 204 213 215 210 206 201 185 169 167 169 169 173 177 174 168 161 157 153 145 140 144 154 167 173 172 174 176 176 176 173 174 177 180 185 189 192 197 200 208 212 206 211 213 200 204 212
163 170 223 207 200 230 236 224 220 226 237 242 220 212 197 301 308 303 305 358 56 76 103 102 95 96 95 96 113 131 142 158 173 183 186 186 187 191 198 202 200 201 207 213 213 211 207 193 176 174 178 177 177 178 173 164 159 158 151 140 132 128 132 149 160 166 175 179 180 178 176 177 180 183 188 191 194 198 200 209 214 212 222 229 223 222 224
174 177 207 206 220 241 244 70 79 119 261 260 253 263 290 329 316 323 340 25 68 80 73 78 87 89 88 101 130 155 165 172 180 184 186 187 188 194 200 200 200 201 202 208 216 219 211 191 177 178 184 180 176 175 171 164 162 161 152 142 135 128 124 131 147 163 175 180 181 180 180 183 185 189 193 194 197 201 204 215 222 219 227 239 249 249 239
197 172 197 221 235 204 111 114 101 90 287 286 290 286 279 282 298 304 313 352 72 82 76 83 93 97 100 116 148 172 175 174 176 179 185 189 191 197 202 201 203 203 199 204 212 213 207 194 178 173 178 178 175 175 173 168 166 165 159 152 147 142 133 123 136 159 173 178 181 184 187 189 192 194 196 197 200 203 207 219 229 233 234 241 254 258 249
198 187 209 237 265 98 134 158 143 146 216 234 263 260 241 264 306 293 296 36 89 100 98 98 103 114 124 136 169 185 180 172 172 179 189 195 197 199 203 206 207 204 197 201 209 205 197 193 180 169 175 180 177 175 174 172 172 171 167 164 162 158 148 131 131 152 169 175 181 190 194 195 197 198 199 202 204 207 211 217 230 246 252 253 258 261 261
222 222 222 223 257 243 206 181 158 196 241 241 273 272 243 71 314 284 275 98 110 113 110 112 124 139 144 152 180 189 186 181 181 188 195 198 197 197 201 206 211 208 195 198 208 199 185 187 182 173 177 180 175 174 175 174 176 177 174 174 176 170 160 148 138 144 164 175 181 191 196 197 198 201 204 207 208 211 216 218 229 248 259 259 258 259 263
221 247 244 230 250 262 242 101 103 107 325 56 331 281 280 74 304 274 252 118 124 126 124 132 147 164 170 156 164 183 187 187 190 194 189 192 199 199 197 197 201 199 190 195 208 198 179 181 183 181 181 179 174 174 178 178 180 181 180 182 183 178 170 161 150 146 161 177 183 190 195 196 199 204 208 209 210 214 218 223 232 241 249 256 257 256 259
210 241 249 245 260 274 97 106 112 114 112 107 188 266 263 73 285 248 154 124 133 134 136 145 157 186 216 144 133 181 187 186 193 193 178 185 201 200 196 198 198 194 190 195 204 198 182 181 183 185 186 181 175 178 183 183 183 185 187 187 186 183 179 173 164 158 164 178 186 193 199 200 203 208 210 208 210 217 219 226 239 243 244 252 255 255 258
220 236 249 259 272 70 109 127 131 122 127 165 228 251 250 67 83 130 116 116 128 132 141 152 160 227 237 160 144 179 183 181 188 192 182 182 195 194 190 194 195 192 193 192 190 188 184 183 185 188 187 182 181 186 189 188 189 191 191 188 187 188 187 184 180 176 176 183 191 197 204 206 208 211 211 209 211 219 222 227 238 243 240 244 250 255 263
219 225 246 261 267 106 117 136 136 132 154 202 236 239 120 65 82 109 112 110 125 138 148 152 144 97 112 135 140 163 176 175 178 189 190 186 190 193 189 186 183 187 195 195 187 181 181 184 186 189 188 185 187 191 193 194 196 196 193 189 189 193 194 194 193 190 189 192 197 204 210 211 212 213 213 212 214 221 225 228 236 241 243 247 253 258 264
231 232 249 258 261 116 131 135 129 147 191 236 249 147 126 83 91 111 124 124 133 149 148 131 134 132 128 138 145 157 171 172 171 181 185 177 176 182 182 180 179 180 186 188 181 177 182 187 188 190 191 191 193 196 199 200 201 199 196 193 195 198 200 201 202 200 199 200 202 210 218 216 215 215 214 215 217 222 227 232 239 245 248 253 259 264 268
244 244 245 258 276 141 152 148 141 178 222 346 69 122 119 93 96 111 127 136 145 157 144 129 137 144 140 145 152 159 169 170 167 171 172 169 168 168 170 175 176 175 178 181 177 177 183 189 191 193 194 196 199 202 205 207 204 201 200 198 198 202 203 206 208 208 207 205 204 212 221 215 211 212 213 214 216 219 226 234 241 248 252 258 263 268 272
243 252 244 266 30 138 163 166 136 165 163 58 55 120 107 100 114 119 121 132 144 154 147 141 143 146 145 151 159 165 168 167 163 163 163 166 167 164 166 169 169 169 173 174 176 178 180 186 192 194 197 201 202 205 211 212 206 201 203 203 202 204 205 207 211 212 211 208 206 212 219 212 206 209 211 212 214 220 229 237 243 250 255 260 267 271 274
228 294 35 90 95 134 164 172 71 107 133 105 65 239 112 115 122 111 118 133 140 149 151 149 150 151 152 157 162 166 165 163 162 161 161 164 164 161 162 166 167 169 169 169 172 175 176 182 189 191 197 202 202 205 216 216 202 196 202 205 204 205 207 208 212 213 212 209 209 214 216 210 209 211 211 214 218 224 233 240 244 251 257 262 269 272 272
142 77 84 121 128 135 154 155 111 109 130 133 142 209 140 111 108 106 115 125 137 150 155 156 157 159 159 159 160 163 163 160 162 164 163 162 160 158 161 165 168 169 169 168 168 169 172 177 182 187 193 195 196 204 217 215 200 197 202 204 204 206 209 210 212 213 211 210 213 217 216 212 214 215 214 218 224 228 236 243 246 251 258 262 266 269 270
180 162 137 140 135 135 144 145 139 135 135 142 157 182 131 119 119 120 115 122 141 150 156 161 162 158 158 160 161 162 161 160 165 168 163 158 158 160 163 165 164 166 170 170 168 168 171 173 175 180 181 181 189 199 204 197 193 196 201 203 203 203 206 209 212 211 210 211 214 218 217 215 217 219 219 221 226 229 235 243 248 252 257 260 261 263 268
165 134 136 135 128 136 150 153 156 162 158 154 153 146 153 161 153 141 135 139 147 150 155 162 159 154 156 160 162 163 162 163 167 167 161 156 156 158 161 161 161 164 170 172 170 169 170 171 172 174 173 174 181 185 183 183 188 193 196 198 198 198 201 205 208 209 209 209 211 213 214 215 216 220 222 223 228 234 236 240 246 250 253 257 260 265 271
129 119 140 146 144 158 176 180 170 161 159 159 165 181 182 170 158 151 147 145 149 153 154 155 154 153 155 160 163 161 158 161 165 163 157 154 153 152 154 155 155 161 168 170 169 168 169 168 167 168 170 174 176 176 176 182 188 191 192 189 188 194 199 200 201 203 203 204 207 208 211 215 217 221 224 224 228 235 240 242 244 245 247 252 259 267 274
185 164 163 168 171 177 184 185 176 164 164 169 180 194 189 173 163 156 148 139 139 144 147 150 155 157 154 154 157 154 152 159 164 158 150 149 149 149 149 149 152 162 170 170 166 163 163 161 161 164 169 173 174 175 176 179 185 188 187 184 185 192 195 194 196 197 197 202 206 207 209 215 220 227 232 231 230 232 237 239 238 238 242 250 260 271 276
157 141 162 175 189 87 154 164 161 160 168 174 178 182 177 166 158 151 147 143 139 140 144 150 159 159 153 150 149 147 150 158 159 152 148 150 151 152 151 150 152 160 166 166 163 161 160 159 161 165 169 170 170 172 175 177 182 184 183 181 185 190 191 192 195 196 196 201 207 209 212 216 219 228 238 241 235 229 227 231 233 236 245 254 262 270 275
97 120 151 169 174 126 143 149 150 156 164 170 169 164 156 151 148 145 146 145 143 142 141 143 150 153 149 146 145 146 150 154 152 148 148 150 151 152 154 155 155 156 157 159 161 163 163 163 163 164 167 168 167 170 175 178 180 182 182 181 185 188 191 195 197 197 198 205 208 210 213 216 219 225 233 239 238 232 229 233 237 242 250 258 264 269 274
114 122 133 141 134 132 138 140 146 156 160 161 159 152 146 144 140 137 138 138 141 144 141 137 142 146 144 142 144 147 149 151 151 149 147 147 149 151 153 159 160 158 157 158 159 161 162 162 161 162 164 167 169 172 176 178 180 183 184 184 186 190 193 196 200 201 203 208 209 210 212 217 222 226 230 234 239 243 247 250 251 253 257 261 265 271 275
123 129 135 133 128 135 142 146 153 157 157 154 150 147 150 150 141 133 132 129 131 138 138 136 138 140 142 144 146 147 149 152 154 151 147 146 149 149 151 157 159 156 154 153 153 154 156 157 159 160 162 167 171 173 175 177 179 183 186 186 189 194 197 198 202 205 207 211 213 213 214 217 223 228 233 237 241 246 254 260 263 265 267 270 274 278 278
138 143 148 147 148 156 162 163 161 158 155 153 148 146 151 153 144 134 131 127 126 129 133 136 138 139 141 146 148 150 152 154 154 153 151 150 150 150 150 152 152 150 150 151 152 153 154 156 158 158 160 167 172 174 177 179 180 183 188 190 192 198 203 203 204 207 211 213 214 214 216 220 225 229 236 244 250 255 262 268 270 272 274 277 282 284 282
144 151 161 176 178 173 169 159 156 155 152 152 151 148 149 149 144 139 135 131 131 131 131 135 139 140 143 148 151 153 156 157 157 158 158 155 152 151 152 151 151 152 153 154 155 155 154 155 156 158 162 169 172 174 178 182 183 186 191 194 196 201 207 209 208 210 213 215 215 216 218 223 229 235 242 250 256 264 271 274 275 277 279 279 282 285 287
146 158 169 182 173 165 160 155 155 155 153 153 153 153 152 150 147 142 136 135 137 136 135 138 142 142 144 149 152 154 159 163 163 165 165 161 155 153 154 153 153 156 158 158 157 157 157 159 162 165 169 172 172 176 182 185 186 190 196 200 201 204 209 212 212 213 215 215 215 217 219 224 231 239 246 254 261 268 273 274 275 277 280 282 285 287 290
150 158 160 155 158 161 162 162 161 160 159 158 156 156 158 155 150 143 138 137 137 138 142 148 149 145 144 148 151 154 160 165 166 170 173 168 161 160 162 159 155 159 163 162 162 164 166 168 171 174 175 175 178 185 191 192 192 195 200 204 206 208 210 213 213 215 217 218 218 219 221 226 234 242 251 259 264 267 270 272 275 278 281 284 286 286 288
160 161 157 158 165 167 166 166 165 163 163 163 161 161 161 158 152 145 140 138 138 139 145 152 152 151 151 153 154 154 158 161 162 167 174 170 166 169 172 168 162 164 167 168 170 173 173 174 180 183 183 185 191 196 199 202 204 202 204 209 212 214 217 218 217 217 217 219 222 223 224 229 238 247 253 258 262 264 268 273 276 279 282 284 285 288 291
158 158 159 165 172 174 171 169 167 166 167 168 167 165 163 161 156 149 143 142 141 140 144 149 151 156 161 161 158 157 158 160 161 163 169 170 169 172 177 175 172 172 174 175 178 178 173 174 183 186 184 193 205 209 211 215 214 208 207 210 212 218 226 227 223 221 222 221 221 223 227 233 241 248 253 257 261 265 270 274 278 280 283 285 287 289 291
159 162 170 175 178 179 176 174 173 172 172 173 170 167 167 167 162 154 147 144 144 144 146 149 152 158 163 163 161 160 159 160 161 163 170 174 173 174 178 179 180 181 180 180 182 180 177 181 189 186 179 195 214 217 218 221 217 210 210 213 210 214 226 229 223 219 222 224 223 226 232 238 243 248 253 259 264 269 274 277 280 283 284 286 288 290 291
176 180 186 188 187 185 182 180 179 177 175 174 171 169 169 168 165 161 155 150 150 152 156 156 154 156 160 162 160 156 155 159 163 168 175 177 175 175 177 178 179 181 182 182 183 183 186 195 198 185 175 192 219 216 212 216 215 210 211 213 209 208 218 225 223 219 219 223 227 231 236 240 244 250 256 263 268 273 277 280 282 285 286 288 290 291 293
186 184 187 192 195 195 190 185 182 179 176 174 172 170 168 166 167 168 166 161 160 163 166 163 156 153 156 157 152 148 155 165 170 174 178 177 175 176 177 177 177 180 182 184 186 188 192 198 195 183 176 181 200 207 207 211 213 211 210 210 208 207 210 216 219 219 220 224 229 233 237 243 248 254 262 268 272 276 280 282 284 286 288 289 291 293 294
181 172 175 190 195 196 193 189 185 182 179 176 175 172 166 161 165 171 172 170 170 171 170 164 156 149 149 149 146 149 158 163 165 170 174 172 171 174 176 175 176 177 180 184 188 192 197 197 192 192 193 187 180 195 207 206 205 210 212 210 209 210 211 212 215 219 223 227 230 235 241 248 254 259 265 270 274 278 280 282 284 286 287 289 291 294 295
178 177 189 197 191 185 185 185 183 180 178 175 174 174 168 161 163 167 168 170 175 175 169 161 154 148 144 143 143 147 151 153 157 164 167 163 162 165 168 170 172 174 180 189 194 198 203 205 199 202 206 201 191 196 206 201 199 208 213 211 210 212 214 216 219 222 226 229 234 240 246 253 258 264 268 271 274 276 279 283 285 286 287 290 292 293 294
183 186 197 197 186 180 181 181 179 178 177 173 173 176 175 172 169 166 165 170 177 175 165 156 153 151 147 144 141 141 144 148 154 159 159 157 158 161 165 170 174 180 191 202 203 202 206 211 210 211 215 212 206 207 211 202 195 203 210 211 213 214 215 218 221 225 229 234 240 246 251 256 260 265 269 272 274 277 281 283 285 286 289 292 293 293 293
191 192 195 192 185 181 180 177 175 175 175 175 178 181 181 179 174 169 169 175 179 174 166 160 160 159 153 145 140 140 141 144 148 152 153 156 158 161 167 175 183 189 193 194 194 203 216 223 223 225 227 222 216 215 219 217 206 202 209 212 214 217 220 223 225 229 234 240 245 250 255 258 262 267 270 273 277 280 283 285 286 287 288 290 291 291 291
191 191 189 187 184 181 177 175 175 174 173 174 180 183 183 180 176 174 179 185 184 178 173 170 167 162 154 147 147 148 146 145 147 152 157 160 160 161 168 178 186 190 189 186 192 212 226 230 231 235 238 232 220 215 222 228 223 212 213 218 220 222 226 228 231 236 241 245 249 254 257 260 264 268 272 277 280 283 286 288 289 287 286 287 287 288 289
188 189 188 187 185 183 179 176 175 174 174 177 181 183 184 184 183 183 188 191 188 181 177 175 170 162 155 152 153 153 153 156 160 163 165 166 166 166 167 168 173 185 195 202 210 220 229 232 231 234 239 234 221 217 224 231 227 219 220 227 228 229 233 235 237 241 245 248 252 256 258 262 268 272 276 281 284 286 288 291 291 291 292 293 291 289 289
185 188 189 188 187 186 183 179 178 179 181 184 184 182 182 186 189 190 192 194 191 184 178 176 175 168 159 156 158 160 163 169 173 172 171 169 168 166 164 165 174 191 205 211 217 225 234 240 239 233 228 226 223 225 231 233 226 222 226 232 232 234 238 239 240 244 248 251 256 261 265 271 277 280 282 286 288 287 289 293 294 295 297 298 296 293 295
181 184 188 189 187 185 183 182 183 185 186 185 185 184 184 187 192 194 193 193 192 186 180 177 178 175 167 163 165 168 170 172 173 174 177 179 180 178 175 174 184 198 208 212 215 218 219 221 227 228 222 219 222 227 230 228 223 221 226 231 234 237 240 240 243 248 252 256 264 272 276 279 282 283 285 290 291 288 290 296 300 300 300 303 305 306 303
176 180 185 185 181 179 180 181 184 187 187 186 186 187 190 194 199 201 198 193 190 187 181 178 178 177 173 171 172 173 172 172 175 178 182 187 189 192 192 193 197 204 208 207 204 202 200 204 211 211 203 199 203 211 216 217 216 219 224 228 232 236 240 244 249 255 260 266 274 278 279 282 287 290 292 299 304 302 300 303 305 304 302 303 306 307 305
175 181 182 180 177 176 176 178 182 186 187 187 189 194 200 204 206 205 199 192 187 184 181 180 182 181 177 175 177 179 178 178 181 185 187 190 194 195 195 199 207 214 216 208 197 192 197 207 212 205 195 193 195 197 202 207 212 219 227 231 235 240 246 252 258 263 266 271 276 278 281 289 299 303 303 306 312 313 308 303 302 304 306 307 307 309 312
177 181 181 179 179 178 175 175 181 187 190 193 197 202 203 201 199 199 196 187 182 179 179 182 186 186 181 178 182 186 186 186 190 195 197 203 210 210 200 204 213 219 219 211 202 201 207 214 214 207 204 208 209 207 210 216 221 227 233 237 241 247 253 257 261 266 270 275 278 279 283 291 300 305 305 304 305 307 306 306 307 312 316 316 316 317 318
177 180 180 182 185 185 183 182 184 186 186 189 190 189 185 183 186 192 188 178 174 174 178 183 187 189 186 184 188 191 191 194 201 206 209 215 227 235 229 221 220 220 218 214 210 211 214 217 216 214 214 219 223 226 226 227 230 235 240 244 248 252 256 259 264 270 276 282 285 287 289 292 295 298 301 303 307 311 315 316 317 319 321 321 320 320 319
177 177 179 183 187 188 187 182 176 173 173 175 177 178 179 181 185 185 178 171 170 173 179 185 188 187 183 182 187 190 191 197 206 209 210 215 224 232 233 227 222 221 221 220 220 221 224 226 229 231 232 233 235 236 233 233 236 241 243 244 246 247 251 259 268 272 275 280 286 292 297 301 306 312 318 322 323 324 325 324 322 321 322 321 319 317 316
176 176 179 182 183 181 175 169 165 166 169 173 177 181 183 181 178 175 171 168 168 171 176 181 186 185 181 182 187 190 193 203 215 220 217 216 220 225 228 229 230 228 223 220 219 223 228 233 238 241 240 238 235 233 231 232 235 235 234 235 241 248 258 268 276 278 280 284 293 302 309 316 323 328 331 331 329 328 326 323 321 320 319 318 317 316 315
177 178 177 173 170 166 162 159 162 169 174 177 181 182 178 171 168 168 167 165 164 166 171 178 185 186 185 187 191 194 200 211 220 216 207 206 211 214 217 222 224 223 220 214 211 216 228 237 243 245 243 237 231 227 226 227 226 226 232 241 250 260 272 280 284 285 287 293 303 314 322 328 331 333 331 328 326 323 322 320 319 319 320 321 320 320 319
175 173 167 161 160 160 160 163 174 180 178 175 172 170 165 161 161 163 164 165 167 172 177 183 188 191 192 193 195 198 202 206 203 193 188 194 203 204 201 200 200 204 209 209 205 209 220 231 238 240 237 227 219 219 223 226 229 234 242 254 265 275 281 284 286 288 296 307 318 324 329 331 331 329 327 324 322 322 322 323 324 324 325 325 324 323 322
166 162 159 158 159 160 160 166 174 172 166 162 160 158 156 157 159 163 167 171 175 179 183 183 186 191 195 196 198 199 198 195 191 190 190 191 190 190 191 190 190 192 197 197 195 196 200 207 216 221 212 202 209 223 231 236 242 251 259 268 275 279 280 282 287 297 309 318 325 330 331 331 329 326 324 324 325 326 327 328 328 328 327 326 325 325 324